TimePDT,TemperatureF,Dew PointF,Humidity,Sea Level PressureIn,VisibilityMPH,Wind Direction,Wind SpeedMPH,Gust SpeedMPH,PrecipitationIn,Events,Conditions,WindDirDegrees,DateUTC
12:53 AM,86.0,73.9,67,29.98,10.0,ENE,3.5,-,N/A,,Mostly Cloudy,70,2013-08-30 07:53:00
1:53 AM,84.0,75.0,74,29.96,10.0,East,6.9,-,N/A,,Clear,80,2013-08-30 08:53:00
2:53 AM,84.0,77.0,79,29.96,10.0,East,4.6,-,N/A,,Clear,100,2013-08-30 09:53:00
3:00 AM,84.2,77.0,79,29.98,10.0,ESE,5.8,-,N/A,,Scattered Clouds,110,2013-08-30 10:00:00
3:08 AM,84.2,77.0,79,29.98,10.0,ESE,5.8,-,N/A,,Mostly Cloudy,110,2013-08-30 10:08:00
3:35 AM,82.4,77.0,84,29.98,10.0,ESE,4.6,-,N/A,,Scattered Clouds,120,2013-08-30 10:35:00
3:53 AM,82.9,77.0,82,29.96,10.0,Calm,Calm,-,N/A,,Clear,0,2013-08-30 10:53:00
4:53 AM,82.9,77.0,82,29.97,10.0,East,4.6,-,N/A,,Scattered Clouds,90,2013-08-30 11:53:00
5:53 AM,82.9,75.9,79,29.98,10.0,East,6.9,-,N/A,,Mostly Cloudy,100,2013-08-30 12:53:00
6:53 AM,82.9,75.9,79,29.99,10.0,East,5.8,-,N/A,,Mostly Cloudy,90,2013-08-30 13:53:00
7:53 AM,84.0,75.9,76,30.00,10.0,East,5.8,-,N/A,,Partly Cloudy,90,2013-08-30 14:53:00
8:53 AM,86.0,73.0,65,30.01,10.0,ESE,6.9,-,N/A,,Mostly Cloudy,120,2013-08-30 15:53:00
9:53 AM,87.1,73.0,63,30.01,10.0,East,5.8,-,N/A,,Mostly Cloudy,100,2013-08-30 16:53:00
10:53 AM,88.0,72.0,59,30.01,10.0,ESE,6.9,-,N/A,,Mostly Cloudy,120,2013-08-30 17:53:00
11:53 AM,90.0,71.1,54,30.00,10.0,ESE,8.1,-,N/A,,Mostly Cloudy,110,2013-08-30 18:53:00
12:53 PM,91.9,71.1,50,29.97,10.0,East,6.9,-,N/A,,Mostly Cloudy,90,2013-08-30 19:53:00
1:53 PM,93.9,70.0,46,29.95,10.0,ESE,6.9,-,N/A,,Mostly Cloudy,120,2013-08-30 20:53:00
2:53 PM,95.0,70.0,44,29.91,10.0,ENE,8.1,-,N/A,,Mostly Cloudy,70,2013-08-30 21:53:00
3:53 PM,93.0,70.0,47,29.90,10.0,ESE,6.9,-,N/A,,Mostly Cloudy,110,2013-08-30 22:53:00
4:53 PM,93.0,71.1,49,29.89,10.0,ESE,5.8,-,N/A,,Mostly Cloudy,120,2013-08-30 23:53:00
5:53 PM,91.9,71.1,50,29.90,10.0,NNW,8.1,-,N/A,,Mostly Cloudy,340,2013-08-31 00:53:00
6:53 PM,90.0,69.1,50,29.89,10.0,North,5.8,-,N/A,,Mostly Cloudy,10,2013-08-31 01:53:00
7:53 PM,90.0,69.1,50,29.90,10.0,SE,4.6,-,N/A,,Mostly Cloudy,130,2013-08-31 02:53:00
8:53 PM,90.0,69.1,50,29.92,10.0,Calm,Calm,-,N/A,,Clear,0,2013-08-31 03:53:00
9:53 PM,90.0,70.0,52,29.92,10.0,North,3.5,-,N/A,,Clear,10,2013-08-31 04:53:00
10:53 PM,89.1,70.0,53,29.91,10.0,Calm,Calm,-,N/A,,Clear,0,2013-08-31 05:53:00
11:53 PM,88.0,70.0,55,29.91,10.0,Calm,Calm,-,N/A,,Clear,0,2013-08-31 06:53:00